EN

Hourly Weather Overath

Today, 5 March, Friday

Time Temperature Precipitation Wind Pressure Humidity
00:00 +2°C° 0 mm 3 mps 753 mmHg 83%
01:00 +3°C° 0.1 mm 2 mps 753 mmHg 85%
02:00 +3°C° 0.1 mm 2 mps 753 mmHg 87%
03:00 +2°C° 0.1 mm 2 mps 753 mmHg 89%
04:00 +1°C° 0.1 mm 3 mps 754 mmHg 88%
05:00 +1°C° 0.1 mm 3 mps 754 mmHg 87%
06:00 0°C° 0 mm 3 mps 755 mmHg 86%
07:00 +1°C° 0 mm 3 mps 756 mmHg 81%
08:00 +1°C° 0 mm 3 mps 756 mmHg 76%
09:00 +1°C° 0 mm 3 mps 756 mmHg 71%
10:00 +2°C° 0 mm 3 mps 757 mmHg 64%
11:00 +3°C° 0 mm 3 mps 757 mmHg 58%
12:00 +4°C° 0 mm 3 mps 757 mmHg 51%
13:00 +4°C° 0 mm 3 mps 757 mmHg 50%
14:00 +4°C° 0 mm 3 mps 758 mmHg 49%
15:00 +4°C° 0 mm 3 mps 758 mmHg 48%
16:00 +3°C° 0 mm 3 mps 758 mmHg 53%
17:00 +3°C° 0 mm 2 mps 758 mmHg 58%
18:00 +2°C° 0 mm 2 mps 759 mmHg 62%
19:00 +1°C° 0 mm 2 mps 759 mmHg 63%
20:00 +1°C° 0 mm 2 mps 760 mmHg 64%
21:00 +1°C° 0 mm 1 mps 761 mmHg 64%
22:00 +1°C° 0 mm 1 mps 761 mmHg 64%
23:00 +1°C° 0 mm 1 mps 761 mmHg 65%

Tomorrow, 6 March, Saturday

Time Temperature Precipitation Wind Pressure Humidity
00:00 +1°C° 0 mm 1 mps 761 mmHg 65%
01:00 +1°C° 0 mm 1 mps 761 mmHg 65%
02:00 +1°C° 0 mm 1 mps 761 mmHg 64%
03:00 0°C° 0 mm 0 mps 761 mmHg 64%
04:00 -1°C° 0 mm 0 mps 761 mmHg 64%
05:00 -1°C° 0 mm 0 mps 762 mmHg 64%
06:00 -1°C° 0 mm 0 mps 762 mmHg 64%
07:00 +1°C° 0 mm 0 mps 762 mmHg 57%
08:00 +4°C° 0 mm 1 mps 762 mmHg 51%
09:00 +5°C° 0 mm 1 mps 762 mmHg 44%
10:00 +6°C° 0 mm 1 mps 762 mmHg 41%
11:00 +7°C° 0 mm 1 mps 762 mmHg 37%
12:00 +8°C° 0 mm 1 mps 762 mmHg 34%
13:00 +8°C° 0 mm 1 mps 761 mmHg 34%
14:00 +8°C° 0 mm 1 mps 761 mmHg 35%
15:00 +8°C° 0 mm 1 mps 760 mmHg 35%
16:00 +7°C° 0 mm 1 mps 760 mmHg 43%
17:00 +5°C° 0 mm 1 mps 760 mmHg 50%
18:00 +3°C° 0 mm 1 mps 760 mmHg 58%
19:00 +3°C° 0 mm 1 mps 760 mmHg 61%
20:00 +2°C° 0 mm 1 mps 760 mmHg 65%
21:00 +2°C° 0 mm 1 mps 760 mmHg 69%
22:00 +1°C° 0 mm 1 mps 759 mmHg 69%
23:00 +1°C° 0 mm 1 mps 759 mmHg 69%

Day after tomorrow, 7 March, Sunday

Time Temperature Precipitation Wind Pressure Humidity
00:00 +1°C° 0 mm 1 mps 759 mmHg 70%
01:00 +1°C° 0 mm 1 mps 759 mmHg 69%
02:00 0°C° 0 mm 0 mps 758 mmHg 69%
03:00 -1°C° 0 mm 0 mps 758 mmHg 69%
04:00 -1°C° 0 mm 0 mps 758 mmHg 69%
05:00 -1°C° 0 mm 0 mps 757 mmHg 69%
06:00 -1°C° 0 mm 0 mps 757 mmHg 69%
07:00 +1°C° 0 mm 0 mps 757 mmHg 61%
08:00 +3°C° 0 mm 0 mps 757 mmHg 54%
09:00 +5°C° 0 mm 0 mps 757 mmHg 46%
10:00 +6°C° 0 mm 1 mps 756 mmHg 44%
11:00 +7°C° 0 mm 1 mps 756 mmHg 42%
12:00 +7°C° 0 mm 2 mps 755 mmHg 40%
13:00 +7°C° 0 mm 2 mps 755 mmHg 43%
14:00 +7°C° 0 mm 2 mps 754 mmHg 45%
15:00 +7°C° 0 mm 2 mps 754 mmHg 47%
16:00 +5°C° 0 mm 2 mps 754 mmHg 55%
17:00 +4°C° 0 mm 2 mps 754 mmHg 63%
18:00 +3°C° 0 mm 1 mps 754 mmHg 70%
19:00 +2°C° 0 mm 1 mps 754 mmHg 73%
20:00 +2°C° 0 mm 1 mps 754 mmHg 75%
21:00 +1°C° 0 mm 1 mps 754 mmHg 78%
22:00 +1°C° 0 mm 1 mps 754 mmHg 79%
23:00 +1°C° 0 mm 1 mps 754 mmHg 80%

8 March, Monday

Time Temperature Precipitation Wind Pressure Humidity
00:00 0°C° 0 mm 0 mps 754 mmHg 81%
01:00 +1°C° 0 mm 1 mps 754 mmHg 83%
02:00 +1°C° 0 mm 1 mps 754 mmHg 85%
03:00 +1°C° 0 mm 1 mps 754 mmHg 86%
04:00 +1°C° 0 mm 1 mps 754 mmHg 88%
05:00 +1°C° 0 mm 1 mps 754 mmHg 89%
06:00 +1°C° 0 mm 1 mps 754 mmHg 91%
07:00 +2°C° 0 mm 1 mps 754 mmHg 89%
08:00 +3°C° 0 mm 1 mps 754 mmHg 87%
09:00 +3°C° 0 mm 2 mps 755 mmHg 85%
10:00 +4°C° 0 mm 1 mps 755 mmHg 82%
11:00 +5°C° 0 mm 1 mps 755 mmHg 79%
12:00 +6°C° 0 mm 1 mps 755 mmHg 76%
13:00 +6°C° 0 mm 1 mps 754 mmHg 76%
14:00 +6°C° 0 mm 1 mps 754 mmHg 76%
15:00 +6°C° 0 mm 1 mps 754 mmHg 76%
16:00 +5°C° 0 mm 1 mps 754 mmHg 80%
17:00 +5°C° 0 mm 1 mps 754 mmHg 83%
18:00 +3°C° 0 mm 0 mps 754 mmHg 87%
19:00 +3°C° 0 mm 0 mps 754 mmHg 87%
20:00 +2°C° 0 mm 0 mps 754 mmHg 88%
21:00 +2°C° 0 mm 0 mps 755 mmHg 89%
22:00 +2°C° 0 mm 0 mps 754 mmHg 89%
23:00 +3°C° 0 mm 1 mps 754 mmHg 89%

9 March, Tuesday

Time Temperature Precipitation Wind Pressure Humidity
00:00 +3°C° 0 mm 1 mps 754 mmHg 90%
01:00 +3°C° 0 mm 1 mps 754 mmHg 90%
02:00 +3°C° 0 mm 1 mps 754 mmHg 91%
03:00 +3°C° 0 mm 1 mps 754 mmHg 91%
04:00 +3°C° 0.1 mm 1 mps 754 mmHg 92%
05:00 +3°C° 0.1 mm 1 mps 754 mmHg 92%
06:00 +3°C° 0.1 mm 1 mps 754 mmHg 92%
07:00 +4°C° 0 mm 1 mps 754 mmHg 89%
08:00 +4°C° 0 mm 1 mps 754 mmHg 86%
09:00 +5°C° 0 mm 1 mps 754 mmHg 83%
10:00 +6°C° 0 mm 1 mps 754 mmHg 78%
11:00 +7°C° 0 mm 1 mps 754 mmHg 73%
12:00 +8°C° 0 mm 1 mps 754 mmHg 67%
13:00 +8°C° 0 mm 1 mps 754 mmHg 66%
14:00 +9°C° 0 mm 1 mps 753 mmHg 64%
15:00 +9°C° 0 mm 1 mps 753 mmHg 62%
16:00 +8°C° 0 mm 1 mps 753 mmHg 67%
17:00 +6°C° 0 mm 1 mps 753 mmHg 72%
18:00 +5°C° 0 mm 1 mps 753 mmHg 78%
19:00 +5°C° 0 mm 1 mps 753 mmHg 79%
20:00 +3°C° 0 mm 2 mps 753 mmHg 81%
21:00 +3°C° 0 mm 2 mps 753 mmHg 83%
22:00 +2°C° 0 mm 2 mps 753 mmHg 83%
23:00 +2°C° 0 mm 2 mps 752 mmHg 84%

10 March, Wednesday

Time Temperature Precipitation Wind Pressure Humidity
00:00 +2°C° 0 mm 2 mps 752 mmHg 85%
01:00 +2°C° 0 mm 2 mps 751 mmHg 84%
02:00 +2°C° 0 mm 2 mps 751 mmHg 83%
03:00 +2°C° 0 mm 2 mps 750 mmHg 82%
04:00 +1°C° 0 mm 3 mps 750 mmHg 81%
05:00 +1°C° 0 mm 3 mps 750 mmHg 79%
06:00 +2°C° 0 mm 3 mps 749 mmHg 78%
07:00 +3°C° 0 mm 4 mps 749 mmHg 72%
08:00 +3°C° 0 mm 5 mps 748 mmHg 67%
09:00 +6°C° 0 mm 5 mps 748 mmHg 61%
10:00 +5°C° 0.4 mm 5 mps 747 mmHg 68%
11:00 +4°C° 0.4 mm 6 mps 747 mmHg 75%
12:00 +4°C° 0.4 mm 6 mps 746 mmHg 82%
13:00 +5°C° 1.6 mm 5 mps 746 mmHg 84%
14:00 +5°C° 1.6 mm 5 mps 745 mmHg 86%
15:00 +5°C° 1.6 mm 4 mps 745 mmHg 89%
16:00 +5°C° 1.9 mm 4 mps 744 mmHg 90%
17:00 +5°C° 1.9 mm 4 mps 744 mmHg 91%
18:00 +6°C° 1.9 mm 4 mps 743 mmHg 92%
19:00 +6°C° 1.6 mm 4 mps 743 mmHg 91%
20:00 +6°C° 1.6 mm 4 mps 742 mmHg 90%
21:00 +7°C° 1.6 mm 4 mps 742 mmHg 89%
22:00 +7°C° 0.6 mm 5 mps 741 mmHg 88%
23:00 +7°C° 0.6 mm 5 mps 741 mmHg 87%
Show more

We Need Your Consent

Meteoprog and our Service Providers may store and access personal data such as cookies, device identifiers or other similar technologies on your device and process such data to personalise content and ads, as well as provide social media features and to analyse the traffic.

  • Store and/or access information on your device

    Cookies, device identifiers or other information can be stored or accessed on your device for the purposes indicated above.

  • Personalised ads and content, ad and content measurement, audience insights, and products development

    Ads and content can be personalised based on a profile. More data can be added to better personalise ads and content. Ad and content performance can be measured. Insights about the audience who saw the ads and content can be derived. Such data can be used to develop or improve user’s experience, systems and software.

By clicking ‘I Agree’ you will allow the use of indicated cookies, device identifiers, web beacons or other similar technologies. Your settings can be changed in the browser on your device.

For certain purposes, legitimate interests may be relied on, rather than consent. You can read more about this in our Privacy and Cookie Policy.